Regional Weather Roundup
Issued by NWS State College, PA

Home | Current Version | Previous Version | Graphics & Text | Print | Product List | Glossary On
Versions: 1 2 3 4 5 6 7 8 9 10 11 12 13 14 15 16 17 18 19 20 21 22 23 24 25 26 27 28 29 30 31 32 33 34 35 36 37 38 39 40 41 42 43 44 45 46 47 48 49 50
333
ASUS41 KCTP 240510
RWRCTP

REGIONAL WEATHER ROUNDUP
NATIONAL WEATHER SERVICE STATE COLLEGE PA
1200 AM EST FRI NOV 24 2017

Note: "fair" indicates few or no clouds below 12,000 feet with no
significant weather and/or obstructions to visibility.

* = STATION THAT DOES NOT REPORT PRECIPITATION /E.G. RAIN...SNOW...ETC/
    THUNDER OR FOG.

PAZ002>004-007>009-013>016-020>023-029>032-240600-
WESTERN PENNSYLVANIA

CITY           SKY/WX    TMP DP  RH WIND       PRES   REMARKS
ERIE           MOCLDY    37  23  56 SW12      29.99S
MEADVILLE      MOCLDY    34  23  64 SW7       29.99S
FRANKLIN*      CLOUDY    33  21  61 SW7       30.00S
NEW CASTLE     FAIR      30  23  75 CALM      30.04R
BEAVER COUNTY  NOT AVBL
BUTLER*        CLOUDY    32  22  66 SW3       30.04R
PITTSBURGH INT PTCLDY    32  23  69 CALM      30.04R
PITTSBURGH     CLEAR     34  19  54 S3        30.03R
INDIANA*       CLOUDY    30  23  74 CALM      30.06S
LATROBE        CLEAR     28  23  80 SW3       30.05S
WASHINGTON CO* CLEAR     27  23  85 CALM      30.07R
$$

PAZ004>006-010>012-017>019-024>028-033>037-041-042-045-046-049>053-240600-
CENTRAL PENNSYLVANIA

CITY           SKY/WX    TMP DP  RH WIND       PRES   REMARKS
BRADFORD       CLOUDY    32  21  64 VRB5      29.95S
DUBOIS         CLOUDY    31  21  66 SW6       29.98S
CLEARFIELD     CLEAR     30  22  72 SW3       30.01R
JOHNSTOWN      CLEAR     31  19  61 W7        29.98S
ALTOONA        CLOUDY    37  22  54 CALM      30.01S
STATE COLLEGE  CLOUDY    34  22  62 SW3       30.01F
WILLIAMSPORT   CLOUDY    34  24  67 CALM      30.03S
SELINSGROVE    CLOUDY    27  24  89 CALM      30.05S
FT INDIANTOWN  CLEAR     25  23  95 CALM      30.04F
CAPITAL CITY   CLEAR     29  22  75 W3        30.06S
HARRISBURG     PTCLDY    30  27  88 CALM      30.05S
YORK           CLEAR     24  22  91 CALM      30.05S
$$

PAZ038>040-043-044-047-048-054-055-060>062-067>071-240600-
EASTERN PENNSYLVANIA

CITY           SKY/WX    TMP DP  RH WIND       PRES   REMARKS
SCRANTON       CLOUDY    30  23  75 CALM      30.00F
MOUNT POCONO   CLEAR     27  19  72 W8        29.95S
ALLENTOWN      CLEAR     28  19  69 CALM      30.05S
QUAKERTOWN*    CLEAR     25  21  86 CALM      30.05S
READING        CLEAR     29  24  82 CALM      30.05S
LANCASTER      CLEAR     29  24  82 CALM      30.06S
COATESVILLE    CLEAR     30  21  69 W5        30.05F
POTTSTOWN      CLEAR     26  21  81 CALM      30.07F
BLUE BELL      CLEAR     27  23  86 CALM      30.07F
DOYLESTOWN     CLEAR     27  20  75 CALM      30.04F
WILLOW GROVE   NOT AVBL
NORTH PHILA    CLEAR     32  23  69 W3        30.08S
PHILADELPHIA   CLEAR     34  22  61 W7        30.08S
$$




USA.gov is the U.S. government's official web portal to all federal, state and local government web resources and services.